Airfield :
LOGIN :

Register | Disclaimer

   EN    FR    IT 

 










Legend :    VFR   Marginal VFR   IFR   Intensive IFR   Very Intensive IFR
Visi :
Ceiling :
>= 8 km
>= 3000ft
5 to 8 km
1000 to 3000 ft
1500m to 5 km
500 to 1000 ft
800 to 1500m
200 to 500 ft
< 800m
< 200 ft
Symbols :   Thunderstorms  Fog  Heavy snow  Heavy precipitations  Wind > 20 kt
SIGMETs :     Misc.  Thunderstorms  Icing  Turbulence  Mountain Waves  Volcanic Ashes







- Airport Elevation : 697 ft
- IATA code : PEG


LIRZ - San Edigio Perugia

CURRENT METAR :
  • 150250Z AUTO 33008KT 9999 FEW055/// 02/M02 Q1014

EXPIRED METARs :
  • 150150Z AUTO 34008KT 9999 BKN053/// 03/M02 Q1014
  • 150050Z AUTO 35010KT 9999 OVC051/// 04/M00 Q1013

TAF TAF LIRZ
Valid from the 15 at 00:00 until the 16 at 00:00 UTC


142300Z 1500/1524 02008KT 9999 SCT040
No reported NOTAMs for that airfield.
1 SIGMET reported for the Roma FIR (LIRR) :
 
Embedded thunderstorms
LIRR SIGMET 1 VALID 150215/150515 LIIB
LIRR ROMA FIR EMBD TS FCST WI N3858 E01620 - N3849 E01855 - N3630 E01900 - N3632 E01532 - N3858 E01620 TOP FL360 STNR NC=



MET'MAP, your aeronautical weather chart ! - Copyright ORBIFLY December 2007 - Disclaimer

ORBIFLY MET'MAP TEAM :

Programming & Development : Alexandra Zaïnal
Concept & Development : Baudouin d'Aumeries
Co-Development & Prog : Marc-Olivier Méhu
Technical & hardware support : Manuel Goepfert

Contact : metmap@orbifly.com




SOURCES & CREDITS :

   NOAA